Regional Weather Roundup
Issued by NWS

Home | Current Version | Previous Version | Graphics & Text | Print | Product List | Glossary On
Versions: 1 2 3 4 5 6 7 8 9 10 11 12 13 14 15 16 17 18 19 20 21 22 23 24 25 26 27 28 29 30 31 32 33 34 35 36 37 38 39 40 41 42 43 44 45 46 47 48 49 50
000
ASUS43 KFSD 131302
RWRSD

WEATHER ROUNDUP FOR SOUTH DAKOTA
NATIONAL WEATHER SERVICE SIOUX FALLS SD
700 AM CST WED DEC 13 2017

NOTE: "FAIR" INDICATES FEW OR NO CLOUDS BELOW 12,000 FEET WITH NO
SIGNIFICANT WEATHER AND/OR OBSTRUCTIONS TO VISIBILITY.


SDZ001>005-009-010-012>017-131400-
NORTHWEST AND NORTH CENTRAL SOUTH DAKOTA

CITY           SKY/WX    TMP DP  RH WIND       PRES   REMARKS
BUFFALO          N/A     34  23  64 NW12      29.96R WCI  25
FAITH            N/A     36  25  64 NW25G32   29.92R
MOBRIDGE       CLEAR     39  28  64 NW26G36   29.77R
$$

SDZ012>016-024>037-041>051-057-063-072>074-131400-
SOUTHWEST AND SOUTH CENTRAL SOUTH DAKOTA

CITY           SKY/WX    TMP DP  RH WIND       PRES   REMARKS
RAPID CTY ARPT CLEAR     44  16  32 NW32G41   29.97R
PIERRE         CLEAR     41  28  60 NW23G35   29.83R
CUSTER         CLEAR     36  10  34 NW13G30   29.99R
ELLSWORTH AFB  CLEAR     44  15  30 NW33G47   29.95R
PHILIP         CLEAR     42  24  49 NW17G28   29.94R
PINE RIDGE     CLEAR     32  19  58 NW10      30.02R WCI  24
SPEARFISH      FAIR      39  16  38 W18G31    30.08R
WINNER         FAIR      45  25  45 NW32G41   29.85R
$$

SDZ004>011-016>023-039-040-131400-
NORTHEAST SOUTH DAKOTA

CITY           SKY/WX    TMP DP  RH WIND       PRES   REMARKS
ABERDEEN       PTCLDY    37  31  78 NW25G35   29.72R
WATERTOWN      CLOUDY    36  33  89 NW29G41   29.60R
BROOKINGS      CLOUDY    37  33  85 NW29G41   29.59R
SISSETON         N/A     36  31  82 N32G43    29.62R
$$

SDZ017-020-022-023-036>040-048>070-131400-
SOUTHEAST SOUTH DAKOTA

CITY           SKY/WX    TMP DP  RH WIND       PRES   REMARKS
SIOUX FALLS    LGT RAIN  40  36  86 NW28G43   29.61R
HURON          PTCLDY    41  30  65 NW30G40   29.70R
CHAMBERLAIN    CLEAR     44  29  55 NW23G30   29.81R
MITCHELL       PTCLDY    45  30  55 NW30G41   29.71R
YANKTON        CLOUDY    47  32  56 NW40G53   29.67R
$$

ABBREVIATIONS USED IN REMARKS
   TC - TEMPERATURE IN CELSIUS
  WCI - WIND CHILL INDEX
   HX - HEAT INDEX
  VSB - VISIBILITY





USA.gov is the U.S. government's official web portal to all federal, state and local government web resources and services.